Year,Month,Day,Hour,Minute,Value (Times are PST for temperature in C)
2012,06,09,00,00,7.40
2012,06,09,00,01,7.30
2012,06,09,00,02,7.30
2012,06,09,00,03,7.30
2012,06,09,00,04,7.30
2012,06,09,00,05,7.30
2012,06,09,00,06,7.30
2012,06,09,00,07,7.30
2012,06,09,00,08,7.30
2012,06,09,00,09,7.30
2012,06,09,00,10,7.30
2012,06,09,00,11,7.20
2012,06,09,00,12,7.20
2012,06,09,00,13,7.20
2012,06,09,00,14,7.20
2012,06,09,00,15,7.20
2012,06,09,00,16,7.20
2012,06,09,00,17,7.20
2012,06,09,00,18,7.20
2012,06,09,00,19,7.20
2012,06,09,00,20,7.20
2012,06,09,00,21,7.20
2012,06,09,00,22,7.20
2012,06,09,00,23,7.20
2012,06,09,00,24,7.20
2012,06,09,00,25,7.20
2012,06,09,00,26,7.20
2012,06,09,00,27,7.20
2012,06,09,00,28,7.10
2012,06,09,00,29,7.10
2012,06,09,00,30,7.10
2012,06,09,00,31,7.10
2012,06,09,00,32,7.10
2012,06,09,00,33,7.10
2012,06,09,00,34,7.10
2012,06,09,00,35,7.10
2012,06,09,00,36,7.10
2012,06,09,00,37,7.10
2012,06,09,00,38,7.10
2012,06,09,00,39,7.10
2012,06,09,00,40,7.10
2012,06,09,00,41,7.10
2012,06,09,00,42,7.10
2012,06,09,00,43,7.00
2012,06,09,00,44,7.00
2012,06,09,00,45,7.00
2012,06,09,00,46,6.90
2012,06,09,00,47,6.90
2012,06,09,00,48,6.90
2012,06,09,00,49,6.90
2012,06,09,00,50,6.80
2012,06,09,00,51,6.80
2012,06,09,00,52,6.80
2012,06,09,00,53,6.80
2012,06,09,00,54,6.80
2012,06,09,00,55,6.80
2012,06,09,00,56,6.70
2012,06,09,00,57,6.70
2012,06,09,00,58,6.70
2012,06,09,00,59,6.70
2012,06,09,01,00,6.70
2012,06,09,01,01,6.70
2012,06,09,01,02,6.70
2012,06,09,01,03,6.70
2012,06,09,01,04,6.70
2012,06,09,01,05,6.70
2012,06,09,01,06,6.70
2012,06,09,01,07,6.80
2012,06,09,01,08,6.80
2012,06,09,01,09,6.80
2012,06,09,01,10,6.80
2012,06,09,01,11,6.80
2012,06,09,01,12,6.80
2012,06,09,01,13,6.80
2012,06,09,01,14,6.80
2012,06,09,01,15,6.70
2012,06,09,01,16,6.70
2012,06,09,01,17,6.70
2012,06,09,01,18,6.80
2012,06,09,01,19,6.80
2012,06,09,01,20,6.80
2012,06,09,01,21,6.80
2012,06,09,01,22,6.70
2012,06,09,01,23,6.70
2012,06,09,01,24,6.70
2012,06,09,01,25,6.70
2012,06,09,01,26,6.70
2012,06,09,01,27,6.70
2012,06,09,01,28,6.60
2012,06,09,01,29,6.60
2012,06,09,01,30,6.60
2012,06,09,01,31,6.60
2012,06,09,01,32,6.50
2012,06,09,01,33,6.50
2012,06,09,01,34,6.50
2012,06,09,01,35,6.50
2012,06,09,01,36,6.50
2012,06,09,01,37,6.50
2012,06,09,01,38,6.40
2012,06,09,01,39,6.40
2012,06,09,01,40,6.50
2012,06,09,01,41,6.50
2012,06,09,01,42,6.40
2012,06,09,01,43,6.40
2012,06,09,01,44,6.40
2012,06,09,01,45,6.40
2012,06,09,01,46,6.40
2012,06,09,01,47,6.40
2012,06,09,01,48,6.30
2012,06,09,01,49,6.30
2012,06,09,01,50,6.30
2012,06,09,01,51,6.20
2012,06,09,01,52,6.20
2012,06,09,01,53,6.20
2012,06,09,01,54,6.10
2012,06,09,01,55,6.10
2012,06,09,01,56,6.10
2012,06,09,01,57,6.00
2012,06,09,01,58,6.00
2012,06,09,01,59,5.90
2012,06,09,02,00,5.90
2012,06,09,02,01,5.80
2012,06,09,02,02,5.80
2012,06,09,02,03,5.80
2012,06,09,02,04,5.80
2012,06,09,02,05,5.80
2012,06,09,02,06,5.70
2012,06,09,02,07,5.70
2012,06,09,02,08,5.60
2012,06,09,02,09,5.60
2012,06,09,02,10,5.60
2012,06,09,02,11,5.60
2012,06,09,02,12,5.50
2012,06,09,02,13,5.50
2012,06,09,02,14,5.50
2012,06,09,02,15,5.50
2012,06,09,02,16,5.50
2012,06,09,02,17,5.50
2012,06,09,02,18,5.50
2012,06,09,02,19,5.50
2012,06,09,02,20,5.50
2012,06,09,02,21,5.50
2012,06,09,02,22,5.50
2012,06,09,02,23,5.50
2012,06,09,02,24,5.50
2012,06,09,02,25,5.40
2012,06,09,02,26,5.50
2012,06,09,02,27,5.40
2012,06,09,02,28,5.40
2012,06,09,02,29,5.40
2012,06,09,02,30,5.40
2012,06,09,02,31,5.40
2012,06,09,02,32,5.40
2012,06,09,02,33,5.40
2012,06,09,02,34,5.40
2012,06,09,02,35,5.40
2012,06,09,02,36,5.40
2012,06,09,02,37,5.50
2012,06,09,02,38,5.50
2012,06,09,02,39,5.60
2012,06,09,02,40,5.60
2012,06,09,02,41,5.70
2012,06,09,02,42,5.70
2012,06,09,02,43,5.80
2012,06,09,02,44,5.80
2012,06,09,02,45,5.90
2012,06,09,02,46,5.90
2012,06,09,02,47,5.90
2012,06,09,02,48,5.90
2012,06,09,02,49,6.00
2012,06,09,02,50,6.00
2012,06,09,02,51,6.00
2012,06,09,02,52,6.10
2012,06,09,02,53,6.10
2012,06,09,02,54,6.10
2012,06,09,02,55,6.10
2012,06,09,02,56,6.10
2012,06,09,02,57,6.20
2012,06,09,02,58,6.20
2012,06,09,02,59,6.20
2012,06,09,03,00,6.20
2012,06,09,03,01,6.20
2012,06,09,03,02,6.20
2012,06,09,03,03,6.20
2012,06,09,03,04,6.20
2012,06,09,03,05,6.20
2012,06,09,03,06,6.20
2012,06,09,03,07,6.20
2012,06,09,03,08,6.20
2012,06,09,03,09,6.20
2012,06,09,03,10,6.20
2012,06,09,03,11,6.20
2012,06,09,03,12,6.20
2012,06,09,03,13,6.20
2012,06,09,03,14,6.20
2012,06,09,03,15,6.20
2012,06,09,03,16,6.20
2012,06,09,03,17,6.20
2012,06,09,03,18,6.20
2012,06,09,03,19,6.20
2012,06,09,03,20,6.20
2012,06,09,03,21,6.20
2012,06,09,03,22,6.30
2012,06,09,03,23,6.30
2012,06,09,03,24,6.30
2012,06,09,03,25,6.30
2012,06,09,03,26,6.40
2012,06,09,03,27,6.40
2012,06,09,03,28,6.40
2012,06,09,03,29,6.40
2012,06,09,03,30,6.50
2012,06,09,03,31,6.50
2012,06,09,03,32,6.50
2012,06,09,03,33,6.60
2012,06,09,03,34,6.60
2012,06,09,03,35,6.60
2012,06,09,03,36,6.60
2012,06,09,03,37,6.70
2012,06,09,03,38,6.70
2012,06,09,03,39,6.70
2012,06,09,03,40,6.70
2012,06,09,03,41,6.70
2012,06,09,03,42,6.70
2012,06,09,03,43,6.70
2012,06,09,03,44,6.70
2012,06,09,03,45,6.70
2012,06,09,03,46,6.70
2012,06,09,03,47,6.60
2012,06,09,03,48,6.60
2012,06,09,03,49,6.60
2012,06,09,03,50,6.50
2012,06,09,03,51,6.50
2012,06,09,03,52,6.40
2012,06,09,03,53,6.40
2012,06,09,03,54,6.40
2012,06,09,03,55,6.40
2012,06,09,03,56,6.30
2012,06,09,03,57,6.30
2012,06,09,03,58,6.30
2012,06,09,03,59,6.30
2012,06,09,04,00,6.30
2012,06,09,04,01,6.20
2012,06,09,04,02,6.20
2012,06,09,04,03,6.20
2012,06,09,04,04,6.20
2012,06,09,04,05,6.20
2012,06,09,04,06,6.10
2012,06,09,04,07,6.10
2012,06,09,04,08,6.10
2012,06,09,04,09,6.10
2012,06,09,04,10,6.10
2012,06,09,04,11,6.10
2012,06,09,04,12,6.10
2012,06,09,04,13,6.10
2012,06,09,04,14,6.10
2012,06,09,04,15,6.10
2012,06,09,04,16,6.10
2012,06,09,04,17,6.10
2012,06,09,04,18,6.10
2012,06,09,04,19,6.20
2012,06,09,04,20,6.20
2012,06,09,04,21,6.20
2012,06,09,04,22,6.30
2012,06,09,04,23,6.30
2012,06,09,04,24,6.40
2012,06,09,04,25,6.50
2012,06,09,04,26,6.50
2012,06,09,04,27,6.60
2012,06,09,04,28,6.70
2012,06,09,04,29,6.70
2012,06,09,04,30,6.80
2012,06,09,04,31,6.80
2012,06,09,04,32,6.80
2012,06,09,04,33,6.80
2012,06,09,04,34,6.90
2012,06,09,04,35,6.90
2012,06,09,04,36,6.90
2012,06,09,04,37,6.90
2012,06,09,04,38,7.00
2012,06,09,04,39,7.00
2012,06,09,04,40,7.00
2012,06,09,04,41,7.00
2012,06,09,04,42,7.10
2012,06,09,04,43,7.10
2012,06,09,04,44,7.10
2012,06,09,04,45,7.10
2012,06,09,04,46,7.20
2012,06,09,04,47,7.20
2012,06,09,04,48,7.20
2012,06,09,04,49,7.20
2012,06,09,04,50,7.20
2012,06,09,04,51,7.30
2012,06,09,04,52,7.30
2012,06,09,04,53,7.30
2012,06,09,04,54,7.30
2012,06,09,04,55,7.30
2012,06,09,04,56,7.30
2012,06,09,04,57,7.30
2012,06,09,04,58,7.30
2012,06,09,04,59,7.30
2012,06,09,05,00,7.30
2012,06,09,05,01,7.30
2012,06,09,05,02,7.30
2012,06,09,05,03,7.30
2012,06,09,05,04,7.30
2012,06,09,05,05,7.30
2012,06,09,05,06,7.30
2012,06,09,05,07,7.30
2012,06,09,05,08,7.30
2012,06,09,05,09,7.30
2012,06,09,05,10,7.30
2012,06,09,05,11,7.30
2012,06,09,05,12,7.30
2012,06,09,05,13,7.30
2012,06,09,05,14,7.30
2012,06,09,05,15,7.30
2012,06,09,05,16,7.30
2012,06,09,05,17,7.20
2012,06,09,05,18,7.30
2012,06,09,05,19,7.30
2012,06,09,05,20,7.20
2012,06,09,05,21,7.30
2012,06,09,05,22,7.30
2012,06,09,05,23,7.30
2012,06,09,05,24,7.30
2012,06,09,05,25,7.30
2012,06,09,05,26,7.30
2012,06,09,05,27,7.30
2012,06,09,05,28,7.30
2012,06,09,05,29,7.30
2012,06,09,05,30,7.30
2012,06,09,05,31,7.30
2012,06,09,05,32,7.30
2012,06,09,05,33,7.30
2012,06,09,05,34,7.30
2012,06,09,05,35,7.30
2012,06,09,05,36,7.30
2012,06,09,05,37,7.20
2012,06,09,05,38,7.20
2012,06,09,05,39,7.20
2012,06,09,05,40,7.30
2012,06,09,05,41,7.30
2012,06,09,05,42,7.30
2012,06,09,05,43,7.30
2012,06,09,05,44,7.20
2012,06,09,05,45,7.10
2012,06,09,05,46,7.10
2012,06,09,05,47,7.00
2012,06,09,05,48,6.90
2012,06,09,05,49,6.80
2012,06,09,05,50,6.80
2012,06,09,05,51,6.80
2012,06,09,05,52,6.70
2012,06,09,05,53,6.70
2012,06,09,05,54,6.60
2012,06,09,05,55,6.60
2012,06,09,05,56,6.60
2012,06,09,05,57,6.60
2012,06,09,05,58,6.50
2012,06,09,05,59,6.50
2012,06,09,06,00,6.50
2012,06,09,06,01,6.50
2012,06,09,06,02,6.50
2012,06,09,06,03,6.50
2012,06,09,06,04,6.50
2012,06,09,06,05,6.50
2012,06,09,06,06,6.50
2012,06,09,06,07,6.50
2012,06,09,06,08,6.50
2012,06,09,06,09,6.50
2012,06,09,06,10,6.50
2012,06,09,06,11,6.50
2012,06,09,06,12,6.50
2012,06,09,06,13,6.60
2012,06,09,06,14,6.60
2012,06,09,06,15,6.60
2012,06,09,06,16,6.60
2012,06,09,06,17,6.60
2012,06,09,06,18,6.70
2012,06,09,06,19,6.70
2012,06,09,06,20,6.70
2012,06,09,06,21,6.70
2012,06,09,06,22,6.80
2012,06,09,06,23,6.80
2012,06,09,06,24,6.80
2012,06,09,06,25,6.90
2012,06,09,06,26,7.00
2012,06,09,06,27,7.00
2012,06,09,06,28,7.10
2012,06,09,06,29,7.10
2012,06,09,06,30,7.10
2012,06,09,06,31,7.10
2012,06,09,06,32,7.20
2012,06,09,06,33,7.20
2012,06,09,06,34,7.30
2012,06,09,06,35,7.30
2012,06,09,06,36,7.30
2012,06,09,06,37,7.30
2012,06,09,06,38,7.40
2012,06,09,06,39,7.40
2012,06,09,06,40,7.40
2012,06,09,06,41,7.50
2012,06,09,06,42,7.50
2012,06,09,06,43,7.50
2012,06,09,06,44,7.60
2012,06,09,06,45,7.60
2012,06,09,06,46,7.60
2012,06,09,06,47,7.70
2012,06,09,06,48,7.70
2012,06,09,06,49,7.80
2012,06,09,06,50,7.80
2012,06,09,06,51,7.80
2012,06,09,06,52,7.80
2012,06,09,06,53,7.90
2012,06,09,06,54,7.90
2012,06,09,06,55,7.90
2012,06,09,06,56,8.00
2012,06,09,06,57,8.00
2012,06,09,06,58,8.00
2012,06,09,06,59,8.10
2012,06,09,07,00,8.10
2012,06,09,07,01,8.10
2012,06,09,07,02,8.20
2012,06,09,07,03,8.20
2012,06,09,07,04,8.20
2012,06,09,07,05,8.30
2012,06,09,07,06,8.30
2012,06,09,07,07,8.30
2012,06,09,07,08,8.40
2012,06,09,07,09,8.40
2012,06,09,07,10,8.50
2012,06,09,07,11,8.50
2012,06,09,07,12,8.60
2012,06,09,07,13,8.60
2012,06,09,07,14,8.70
2012,06,09,07,15,8.80
2012,06,09,07,16,8.80
2012,06,09,07,17,8.90
2012,06,09,07,18,8.90
2012,06,09,07,19,9.00
2012,06,09,07,20,9.10
2012,06,09,07,21,9.10
2012,06,09,07,22,9.20
2012,06,09,07,23,9.30
2012,06,09,07,24,9.30
2012,06,09,07,25,9.40
2012,06,09,07,26,9.50
2012,06,09,07,27,9.50
2012,06,09,07,28,9.60
2012,06,09,07,29,9.60
2012,06,09,07,30,9.70
2012,06,09,07,31,9.80
2012,06,09,07,32,9.80
2012,06,09,07,33,9.90
2012,06,09,07,34,10.00
2012,06,09,07,35,10.00
2012,06,09,07,36,10.10
2012,06,09,07,37,10.20
2012,06,09,07,38,10.20
2012,06,09,07,39,10.30
2012,06,09,07,40,10.30
2012,06,09,07,41,10.40
2012,06,09,07,42,10.40
2012,06,09,07,43,10.50
2012,06,09,07,44,10.60
2012,06,09,07,45,10.70
2012,06,09,07,46,10.80
2012,06,09,07,47,10.90
2012,06,09,07,48,10.90
2012,06,09,07,49,11.00
2012,06,09,07,50,11.10
2012,06,09,07,51,11.10
2012,06,09,07,52,11.20
2012,06,09,07,53,11.30
2012,06,09,07,54,11.30
2012,06,09,07,55,11.30
2012,06,09,07,56,11.40
2012,06,09,07,57,11.40
2012,06,09,07,58,11.40
2012,06,09,07,59,11.50
2012,06,09,08,00,11.50
2012,06,09,08,01,11.60
2012,06,09,08,02,11.70
2012,06,09,08,03,11.70
2012,06,09,08,04,11.80
2012,06,09,08,05,11.80
2012,06,09,08,06,11.90
2012,06,09,08,07,11.90
2012,06,09,08,08,11.90
2012,06,09,08,09,12.00
2012,06,09,08,10,12.10
2012,06,09,08,11,12.10
2012,06,09,08,12,12.10
2012,06,09,08,13,12.20
2012,06,09,08,14,12.20
2012,06,09,08,15,12.20
2012,06,09,08,16,12.30
2012,06,09,08,17,12.30
2012,06,09,08,18,12.30
2012,06,09,08,19,12.40
2012,06,09,08,20,12.40
2012,06,09,08,21,12.40
2012,06,09,08,22,12.40
2012,06,09,08,23,12.40
2012,06,09,08,24,12.40
2012,06,09,08,25,12.50
2012,06,09,08,26,12.50
2012,06,09,08,27,12.50
2012,06,09,08,28,12.50
2012,06,09,08,29,12.50
2012,06,09,08,30,12.60
2012,06,09,08,31,12.60
2012,06,09,08,32,12.70
2012,06,09,08,33,12.70
2012,06,09,08,34,12.70
2012,06,09,08,35,12.80
2012,06,09,08,36,12.80
2012,06,09,08,37,12.80
2012,06,09,08,38,12.80
2012,06,09,08,39,12.80
2012,06,09,08,40,12.90
2012,06,09,08,41,12.90
2012,06,09,08,42,12.90
2012,06,09,08,43,13.00
2012,06,09,08,44,13.00
2012,06,09,08,45,13.10
2012,06,09,08,46,13.10
2012,06,09,08,47,13.20
2012,06,09,08,48,13.20
2012,06,09,08,49,13.20
2012,06,09,08,50,13.20
2012,06,09,08,51,13.20
2012,06,09,08,52,13.20
2012,06,09,08,53,13.20
2012,06,09,08,54,13.30
2012,06,09,08,55,13.30
2012,06,09,08,56,13.40
2012,06,09,08,57,13.50
2012,06,09,08,58,13.60
2012,06,09,08,59,13.60
2012,06,09,09,00,13.60
2012,06,09,09,01,13.60
2012,06,09,09,02,13.60
2012,06,09,09,03,13.60
2012,06,09,09,04,13.70
2012,06,09,09,05,13.70
2012,06,09,09,06,13.70
2012,06,09,09,07,13.80
2012,06,09,09,08,13.90
2012,06,09,09,09,13.90
2012,06,09,09,10,14.00
2012,06,09,09,11,14.10
2012,06,09,09,12,14.10
2012,06,09,09,13,14.10
2012,06,09,09,14,14.00
2012,06,09,09,15,14.00
2012,06,09,09,16,14.00
2012,06,09,09,17,13.90
2012,06,09,09,18,13.90
2012,06,09,09,19,13.90
2012,06,09,09,20,13.90
2012,06,09,09,21,13.90
2012,06,09,09,22,13.90
2012,06,09,09,23,13.90
2012,06,09,09,24,13.90
2012,06,09,09,25,13.90
2012,06,09,09,26,13.90
2012,06,09,09,27,13.90
2012,06,09,09,28,13.90
2012,06,09,09,29,13.90
2012,06,09,09,30,14.00
2012,06,09,09,31,14.00
2012,06,09,09,32,14.00
2012,06,09,09,33,14.00
2012,06,09,09,34,13.90
2012,06,09,09,35,13.90
2012,06,09,09,36,13.80
2012,06,09,09,37,13.80
2012,06,09,09,38,13.80
2012,06,09,09,39,13.80
2012,06,09,09,40,13.80
2012,06,09,09,41,13.80
2012,06,09,09,42,13.80
2012,06,09,09,43,13.70
2012,06,09,09,44,13.70
2012,06,09,09,45,13.70
2012,06,09,09,46,13.70
2012,06,09,09,47,13.70
2012,06,09,09,48,13.80
2012,06,09,09,49,13.80
2012,06,09,09,50,13.90
2012,06,09,09,51,13.90
2012,06,09,09,52,13.90
2012,06,09,09,53,13.90
2012,06,09,09,54,13.90
2012,06,09,09,55,13.90
2012,06,09,09,56,13.90
2012,06,09,09,57,13.90
2012,06,09,09,58,13.90
2012,06,09,09,59,13.90
2012,06,09,10,00,14.00
2012,06,09,10,01,14.00
2012,06,09,10,02,14.10
2012,06,09,10,03,14.10
2012,06,09,10,04,14.10
2012,06,09,10,05,14.20
2012,06,09,10,06,14.20
2012,06,09,10,07,14.20
2012,06,09,10,08,14.30
2012,06,09,10,09,14.30
2012,06,09,10,10,14.30
2012,06,09,10,11,14.30
2012,06,09,10,12,14.20
2012,06,09,10,13,14.20
2012,06,09,10,14,14.30
2012,06,09,10,15,14.30
2012,06,09,10,16,14.40
2012,06,09,10,17,14.40
2012,06,09,10,18,14.40
2012,06,09,10,19,14.50
2012,06,09,10,20,14.50
2012,06,09,10,21,14.50
2012,06,09,10,22,14.50
2012,06,09,10,23,14.50
2012,06,09,10,24,14.50
2012,06,09,10,25,14.50
2012,06,09,10,26,14.50
2012,06,09,10,27,14.50
2012,06,09,10,28,14.50
2012,06,09,10,29,14.50
2012,06,09,10,30,14.50
2012,06,09,10,31,14.50
2012,06,09,10,32,14.50
2012,06,09,10,33,14.50
2012,06,09,10,34,14.60
2012,06,09,10,35,14.70
2012,06,09,10,36,14.80
2012,06,09,10,37,14.80
2012,06,09,10,38,14.80
2012,06,09,10,39,14.70
2012,06,09,10,40,14.70
2012,06,09,10,41,14.70
2012,06,09,10,42,14.60
2012,06,09,10,43,14.60
2012,06,09,10,44,14.60
2012,06,09,10,45,14.60
2012,06,09,10,46,14.50
2012,06,09,10,47,14.40
2012,06,09,10,48,14.40
2012,06,09,10,49,14.40
2012,06,09,10,50,14.40
2012,06,09,10,51,14.50
2012,06,09,10,52,14.50
2012,06,09,10,53,14.50
2012,06,09,10,54,14.50
2012,06,09,10,55,14.40
2012,06,09,10,56,14.40
2012,06,09,10,57,14.40
2012,06,09,10,58,14.40
2012,06,09,10,59,14.40
2012,06,09,11,00,14.40
2012,06,09,11,01,14.40
2012,06,09,11,02,14.40
2012,06,09,11,03,14.30
2012,06,09,11,04,14.30
2012,06,09,11,05,14.30
2012,06,09,11,06,14.30
2012,06,09,11,07,14.30
2012,06,09,11,08,14.40
2012,06,09,11,09,14.40
2012,06,09,11,10,14.40
2012,06,09,11,11,14.40
2012,06,09,11,12,14.40
2012,06,09,11,13,14.30
2012,06,09,11,14,14.30
2012,06,09,11,15,14.30
2012,06,09,11,16,14.30
2012,06,09,11,17,14.40
2012,06,09,11,18,14.40
2012,06,09,11,19,14.50
2012,06,09,11,20,14.60
2012,06,09,11,21,14.60
2012,06,09,11,22,14.70
2012,06,09,11,23,14.70
2012,06,09,11,24,14.60
2012,06,09,11,25,14.50
2012,06,09,11,26,14.40
2012,06,09,11,27,14.40
2012,06,09,11,28,14.40
2012,06,09,11,29,14.50
2012,06,09,11,30,14.50
2012,06,09,11,31,14.60
2012,06,09,11,32,14.50
2012,06,09,11,33,14.50
2012,06,09,11,34,14.50
2012,06,09,11,35,14.50
2012,06,09,11,36,14.50
2012,06,09,11,37,14.50
2012,06,09,11,38,14.40
2012,06,09,11,39,14.40
2012,06,09,11,40,14.50
2012,06,09,11,41,14.60
2012,06,09,11,42,14.60
2012,06,09,11,43,14.60
2012,06,09,11,44,14.70
2012,06,09,11,45,14.70
2012,06,09,11,46,14.80
2012,06,09,11,47,14.80
2012,06,09,11,48,14.80
2012,06,09,11,49,14.80
2012,06,09,11,50,14.80
2012,06,09,11,51,14.80
2012,06,09,11,52,14.80
2012,06,09,11,53,14.80
2012,06,09,11,54,15.00
2012,06,09,11,55,15.10
2012,06,09,11,56,15.20
2012,06,09,11,57,15.10
2012,06,09,11,58,15.10
2012,06,09,11,59,15.10
2012,06,09,12,00,15.00
2012,06,09,12,01,15.10
2012,06,09,12,02,15.10
2012,06,09,12,03,15.10
2012,06,09,12,04,15.10
2012,06,09,12,05,15.10
2012,06,09,12,06,15.10
2012,06,09,12,07,15.10
2012,06,09,12,08,15.20
2012,06,09,12,09,15.30
2012,06,09,12,10,15.30
2012,06,09,12,11,15.30
2012,06,09,12,12,15.30
2012,06,09,12,13,15.30
2012,06,09,12,14,15.30
2012,06,09,12,15,15.30
2012,06,09,12,16,15.30
2012,06,09,12,17,15.30
2012,06,09,12,18,15.40
2012,06,09,12,19,15.40
2012,06,09,12,20,15.40
2012,06,09,12,21,15.50
2012,06,09,12,22,15.40
2012,06,09,12,23,15.40
2012,06,09,12,24,15.40
2012,06,09,12,25,15.40
2012,06,09,12,26,15.50
2012,06,09,12,27,15.50
2012,06,09,12,28,15.50
2012,06,09,12,29,15.60
2012,06,09,12,30,15.50
2012,06,09,12,31,15.40
2012,06,09,12,32,15.40
2012,06,09,12,33,15.40
2012,06,09,12,34,15.40
2012,06,09,12,35,15.50
2012,06,09,12,36,15.50
2012,06,09,12,37,15.50
2012,06,09,12,38,15.60
2012,06,09,12,39,15.60
2012,06,09,12,40,15.50
2012,06,09,12,41,15.40
2012,06,09,12,42,15.40
2012,06,09,12,43,15.50
2012,06,09,12,44,15.50
2012,06,09,12,45,15.60
2012,06,09,12,46,15.60
2012,06,09,12,47,15.70
2012,06,09,12,48,15.70
2012,06,09,12,49,15.70
2012,06,09,12,50,15.60
2012,06,09,12,51,15.50
2012,06,09,12,52,15.40
2012,06,09,12,53,15.50
2012,06,09,12,54,15.50
2012,06,09,12,55,15.60
2012,06,09,12,56,15.60
2012,06,09,12,57,15.70
2012,06,09,12,58,15.70
2012,06,09,12,59,15.80
2012,06,09,13,00,15.80
2012,06,09,13,01,15.90
2012,06,09,13,02,16.00
2012,06,09,13,03,16.10
2012,06,09,13,04,16.20
2012,06,09,13,05,16.20
2012,06,09,13,06,16.20
2012,06,09,13,07,16.20
2012,06,09,13,08,16.20
2012,06,09,13,09,16.10
2012,06,09,13,10,16.10
2012,06,09,13,11,16.10
2012,06,09,13,12,16.00
2012,06,09,13,13,15.90
2012,06,09,13,14,15.80
2012,06,09,13,15,15.70
2012,06,09,13,16,15.70
2012,06,09,13,17,15.60
2012,06,09,13,18,15.50
2012,06,09,13,19,15.50
2012,06,09,13,20,15.60
2012,06,09,13,21,15.50
2012,06,09,13,22,15.50
2012,06,09,13,23,15.50
2012,06,09,13,24,15.60
2012,06,09,13,25,15.60
2012,06,09,13,26,15.70
2012,06,09,13,27,15.80
2012,06,09,13,28,15.80
2012,06,09,13,29,15.80
2012,06,09,13,30,15.80
2012,06,09,13,31,15.70
2012,06,09,13,32,15.70
2012,06,09,13,33,15.70
2012,06,09,13,34,15.70
2012,06,09,13,35,15.80
2012,06,09,13,36,15.80
2012,06,09,13,37,15.70
2012,06,09,13,38,15.70
2012,06,09,13,39,15.80
2012,06,09,13,40,15.80
2012,06,09,13,41,15.80
2012,06,09,13,42,15.80
2012,06,09,13,43,15.70
2012,06,09,13,44,15.70
2012,06,09,13,45,15.70
2012,06,09,13,46,15.70
2012,06,09,13,47,15.80
2012,06,09,13,48,15.80
2012,06,09,13,49,15.90
2012,06,09,13,50,15.90
2012,06,09,13,51,16.00
2012,06,09,13,52,16.10
2012,06,09,13,53,16.00
2012,06,09,13,54,16.00
2012,06,09,13,55,15.90
2012,06,09,13,56,15.90
2012,06,09,13,57,15.90
2012,06,09,13,58,15.90
2012,06,09,13,59,15.90
2012,06,09,14,00,15.90
2012,06,09,14,01,15.90
2012,06,09,14,02,15.90
2012,06,09,14,03,15.90
2012,06,09,14,04,16.00
2012,06,09,14,05,16.10
2012,06,09,14,06,16.10
2012,06,09,14,07,16.10
2012,06,09,14,08,16.20
2012,06,09,14,09,16.30
2012,06,09,14,10,16.40
2012,06,09,14,11,16.50
2012,06,09,14,12,16.60
2012,06,09,14,13,16.50
2012,06,09,14,14,16.50
2012,06,09,14,15,16.40
2012,06,09,14,16,16.30
2012,06,09,14,17,16.30
2012,06,09,14,18,16.30
2012,06,09,14,19,16.30
2012,06,09,14,20,16.30
2012,06,09,14,21,16.30
2012,06,09,14,22,16.30
2012,06,09,14,23,16.20
2012,06,09,14,24,16.20
2012,06,09,14,25,16.10
2012,06,09,14,26,16.00
2012,06,09,14,27,16.00
2012,06,09,14,28,16.00
2012,06,09,14,29,16.00
2012,06,09,14,30,15.90
2012,06,09,14,31,15.90
2012,06,09,14,32,15.90
2012,06,09,14,33,15.90
2012,06,09,14,34,15.80
2012,06,09,14,35,15.80
2012,06,09,14,36,15.80
2012,06,09,14,37,15.70
2012,06,09,14,38,15.80
2012,06,09,14,39,15.80
2012,06,09,14,40,15.80
2012,06,09,14,41,15.70
2012,06,09,14,42,15.80
2012,06,09,14,43,15.90
2012,06,09,14,44,16.00
2012,06,09,14,45,16.10
2012,06,09,14,46,16.10
2012,06,09,14,47,16.00
2012,06,09,14,48,16.00
2012,06,09,14,49,16.10
2012,06,09,14,50,16.10
2012,06,09,14,51,16.10
2012,06,09,14,52,16.00
2012,06,09,14,53,15.80
2012,06,09,14,54,15.70
2012,06,09,14,55,15.60
2012,06,09,14,56,15.60
2012,06,09,14,57,15.60
2012,06,09,14,58,15.50
2012,06,09,14,59,15.50
2012,06,09,15,00,15.60
2012,06,09,15,01,15.60
2012,06,09,15,02,15.60
2012,06,09,15,03,15.60
2012,06,09,15,04,15.60
2012,06,09,15,05,15.60
2012,06,09,15,06,15.60
2012,06,09,15,07,15.70
2012,06,09,15,08,15.70
2012,06,09,15,09,15.80
2012,06,09,15,10,15.80
2012,06,09,15,11,15.80
2012,06,09,15,12,15.80
2012,06,09,15,13,15.80
2012,06,09,15,14,15.70
2012,06,09,15,15,15.70
2012,06,09,15,16,15.70
2012,06,09,15,17,15.80
2012,06,09,15,18,15.80
2012,06,09,15,19,15.80
2012,06,09,15,20,15.80
2012,06,09,15,21,15.70
2012,06,09,15,22,15.70
2012,06,09,15,23,15.70
2012,06,09,15,24,15.70
2012,06,09,15,25,15.60
2012,06,09,15,26,15.60
2012,06,09,15,27,15.60
2012,06,09,15,28,15.60
2012,06,09,15,29,15.60
2012,06,09,15,30,15.60
2012,06,09,15,31,15.50
2012,06,09,15,32,15.50
2012,06,09,15,33,15.40
2012,06,09,15,34,15.40
2012,06,09,15,35,15.40
2012,06,09,15,36,15.50
2012,06,09,15,37,15.60
2012,06,09,15,38,15.70
2012,06,09,15,39,15.70
2012,06,09,15,40,15.70
2012,06,09,15,41,15.70
2012,06,09,15,42,15.60
2012,06,09,15,43,15.60
2012,06,09,15,44,15.60
2012,06,09,15,45,15.60
2012,06,09,15,46,15.70
2012,06,09,15,47,15.70
2012,06,09,15,48,15.70
2012,06,09,15,49,15.70
2012,06,09,15,50,15.70
2012,06,09,15,51,15.70
2012,06,09,15,52,15.70
2012,06,09,15,53,15.70
2012,06,09,15,54,15.70
2012,06,09,15,55,15.70
2012,06,09,15,56,15.70
2012,06,09,15,57,15.70
2012,06,09,15,58,15.60
2012,06,09,15,59,15.60
2012,06,09,16,00,15.50
2012,06,09,16,01,15.50
2012,06,09,16,02,15.50
2012,06,09,16,03,15.50
2012,06,09,16,04,15.40
2012,06,09,16,05,15.40
2012,06,09,16,06,15.40
2012,06,09,16,07,15.40
2012,06,09,16,08,15.50
2012,06,09,16,09,15.60
2012,06,09,16,10,15.60
2012,06,09,16,11,15.70
2012,06,09,16,12,15.70
2012,06,09,16,13,15.70
2012,06,09,16,14,15.60
2012,06,09,16,15,15.50
2012,06,09,16,16,15.50
2012,06,09,16,17,15.50
2012,06,09,16,18,15.50
2012,06,09,16,19,15.50
2012,06,09,16,20,15.50
2012,06,09,16,21,15.50
2012,06,09,16,22,15.50
2012,06,09,16,23,15.60
2012,06,09,16,24,15.60
2012,06,09,16,25,15.70
2012,06,09,16,26,15.70
2012,06,09,16,27,15.60
2012,06,09,16,28,15.50
2012,06,09,16,29,15.40
2012,06,09,16,30,15.30
2012,06,09,16,31,15.20
2012,06,09,16,32,15.10
2012,06,09,16,33,15.10
2012,06,09,16,34,15.10
2012,06,09,16,35,15.10
2012,06,09,16,36,15.10
2012,06,09,16,37,15.10
2012,06,09,16,38,15.20
2012,06,09,16,39,15.20
2012,06,09,16,40,15.30
2012,06,09,16,41,15.30
2012,06,09,16,42,15.40
2012,06,09,16,43,15.50
2012,06,09,16,44,15.50
2012,06,09,16,45,15.60
2012,06,09,16,46,15.60
2012,06,09,16,47,15.60
2012,06,09,16,48,15.60
2012,06,09,16,49,15.70
2012,06,09,16,50,15.60
2012,06,09,16,51,15.40
2012,06,09,16,52,15.30
2012,06,09,16,53,15.20
2012,06,09,16,54,15.20
2012,06,09,16,55,15.20
2012,06,09,16,56,15.10
2012,06,09,16,57,15.00
2012,06,09,16,58,15.00
2012,06,09,16,59,15.00
2012,06,09,17,00,15.00
2012,06,09,17,01,14.90
2012,06,09,17,02,14.80
2012,06,09,17,03,14.80
2012,06,09,17,04,14.70
2012,06,09,17,05,14.70
2012,06,09,17,06,14.60
2012,06,09,17,07,14.60
2012,06,09,17,08,14.50
2012,06,09,17,09,14.50
2012,06,09,17,10,14.60
2012,06,09,17,11,14.60
2012,06,09,17,12,14.70
2012,06,09,17,13,14.70
2012,06,09,17,14,14.60
2012,06,09,17,15,14.60
2012,06,09,17,16,14.60
2012,06,09,17,17,14.60
2012,06,09,17,18,14.60
2012,06,09,17,19,14.60
2012,06,09,17,20,14.60
2012,06,09,17,21,14.60
2012,06,09,17,22,14.60
2012,06,09,17,23,14.60
2012,06,09,17,24,14.60
2012,06,09,17,25,14.60
2012,06,09,17,26,14.60
2012,06,09,17,27,14.50
2012,06,09,17,28,14.50
2012,06,09,17,29,14.40
2012,06,09,17,30,14.40
2012,06,09,17,31,14.40
2012,06,09,17,32,14.30
2012,06,09,17,33,14.30
2012,06,09,17,34,14.30
2012,06,09,17,35,14.30
2012,06,09,17,36,14.40
2012,06,09,17,37,14.40
2012,06,09,17,38,14.40
2012,06,09,17,39,14.40